Year,Month,Day,Hour,Minute,Value (Times are PST for temperature in C)
2016,09,30,00,00,7.20
2016,09,30,00,01,7.20
2016,09,30,00,02,7.20
2016,09,30,00,03,7.10
2016,09,30,00,04,7.10
2016,09,30,00,05,7.10
2016,09,30,00,06,7.10
2016,09,30,00,07,7.10
2016,09,30,00,08,7.10
2016,09,30,00,09,7.10
2016,09,30,00,10,7.10
2016,09,30,00,11,7.10
2016,09,30,00,12,7.10
2016,09,30,00,13,7.10
2016,09,30,00,14,7.10
2016,09,30,00,15,7.10
2016,09,30,00,16,7.10
2016,09,30,00,17,7.00
2016,09,30,00,18,7.00
2016,09,30,00,19,7.00
2016,09,30,00,20,7.00
2016,09,30,00,21,7.00
2016,09,30,00,22,6.90
2016,09,30,00,23,6.90
2016,09,30,00,24,6.90
2016,09,30,00,25,6.80
2016,09,30,00,26,6.80
2016,09,30,00,27,6.80
2016,09,30,00,28,6.80
2016,09,30,00,29,6.80
2016,09,30,00,30,6.80
2016,09,30,00,31,6.80
2016,09,30,00,32,6.80
2016,09,30,00,33,6.80
2016,09,30,00,34,6.80
2016,09,30,00,35,6.70
2016,09,30,00,36,6.70
2016,09,30,00,37,6.70
2016,09,30,00,38,6.70
2016,09,30,00,39,6.70
2016,09,30,00,40,6.70
2016,09,30,00,41,6.70
2016,09,30,00,42,6.70
2016,09,30,00,43,6.70
2016,09,30,00,44,6.70
2016,09,30,00,45,6.60
2016,09,30,00,46,6.60
2016,09,30,00,47,6.60
2016,09,30,00,48,6.60
2016,09,30,00,49,6.50
2016,09,30,00,50,6.50
2016,09,30,00,51,6.40
2016,09,30,00,52,6.40
2016,09,30,00,53,6.40
2016,09,30,00,54,6.40
2016,09,30,00,55,6.30
2016,09,30,00,56,6.30
2016,09,30,00,57,6.30
2016,09,30,00,58,6.30
2016,09,30,00,59,6.30
2016,09,30,01,00,6.30
2016,09,30,01,01,6.20
2016,09,30,01,02,6.20
2016,09,30,01,03,6.20
2016,09,30,01,04,6.20
2016,09,30,01,05,6.20
2016,09,30,01,06,6.10
2016,09,30,01,07,6.10
2016,09,30,01,08,6.10
2016,09,30,01,09,6.10
2016,09,30,01,10,6.10
2016,09,30,01,11,6.10
2016,09,30,01,12,6.10
2016,09,30,01,13,6.10
2016,09,30,01,14,6.10
2016,09,30,01,15,6.00
2016,09,30,01,16,6.00
2016,09,30,01,17,6.00
2016,09,30,01,18,6.00
2016,09,30,01,19,5.90
2016,09,30,01,20,5.90
2016,09,30,01,21,5.90
2016,09,30,01,22,5.90
2016,09,30,01,23,5.90
2016,09,30,01,24,5.90
2016,09,30,01,25,5.90
2016,09,30,01,26,5.90
2016,09,30,01,27,5.80
2016,09,30,01,28,5.80
2016,09,30,01,29,5.80
2016,09,30,01,30,5.80
2016,09,30,01,31,5.80
2016,09,30,01,32,5.80
2016,09,30,01,33,5.70
2016,09,30,01,34,5.70
2016,09,30,01,35,5.70
2016,09,30,01,36,5.70
2016,09,30,01,37,5.70
2016,09,30,01,38,5.70
2016,09,30,01,39,5.60
2016,09,30,01,40,5.60
2016,09,30,01,41,5.60
2016,09,30,01,42,5.60
2016,09,30,01,43,5.60
2016,09,30,01,44,5.60
2016,09,30,01,45,5.60
2016,09,30,01,46,5.60
2016,09,30,01,47,5.60
2016,09,30,01,48,5.60
2016,09,30,01,49,5.60
2016,09,30,01,50,5.60
2016,09,30,01,51,5.60
2016,09,30,01,52,5.60
2016,09,30,01,53,5.60
2016,09,30,01,54,5.50
2016,09,30,01,55,5.50
2016,09,30,01,56,5.50
2016,09,30,01,57,5.50
2016,09,30,01,58,5.40
2016,09,30,01,59,5.40
2016,09,30,02,00,5.40
2016,09,30,02,01,5.40
2016,09,30,02,02,5.40
2016,09,30,02,03,5.50
2016,09,30,02,04,5.50
2016,09,30,02,05,5.50
2016,09,30,02,06,5.50
2016,09,30,02,07,5.50
2016,09,30,02,08,5.50
2016,09,30,02,09,5.50
2016,09,30,02,10,5.50
2016,09,30,02,11,5.50
2016,09,30,02,12,5.40
2016,09,30,02,13,5.40
2016,09,30,02,14,5.40
2016,09,30,02,15,5.40
2016,09,30,02,16,5.40
2016,09,30,02,17,5.40
2016,09,30,02,18,5.40
2016,09,30,02,19,5.40
2016,09,30,02,20,5.30
2016,09,30,02,21,5.30
2016,09,30,02,22,5.30
2016,09,30,02,23,5.30
2016,09,30,02,24,5.30
2016,09,30,02,25,5.30
2016,09,30,02,26,5.30
2016,09,30,02,27,5.30
2016,09,30,02,28,5.30
2016,09,30,02,29,5.20
2016,09,30,02,30,5.20
2016,09,30,02,31,5.20
2016,09,30,02,32,5.20
2016,09,30,02,33,5.20
2016,09,30,02,34,5.20
2016,09,30,02,35,5.20
2016,09,30,02,36,5.20
2016,09,30,02,37,5.10
2016,09,30,02,38,5.10
2016,09,30,02,39,5.20
2016,09,30,02,40,5.20
2016,09,30,02,41,5.20
2016,09,30,02,42,5.20
2016,09,30,02,43,5.20
2016,09,30,02,44,5.20
2016,09,30,02,45,5.20
2016,09,30,02,46,5.20
2016,09,30,02,47,5.20
2016,09,30,02,48,5.20
2016,09,30,02,49,5.20
2016,09,30,02,50,5.20
2016,09,30,02,51,5.20
2016,09,30,02,52,5.20
2016,09,30,02,53,5.20
2016,09,30,02,54,5.20
2016,09,30,02,55,5.20
2016,09,30,02,56,5.20
2016,09,30,02,57,5.20
2016,09,30,02,58,5.20
2016,09,30,02,59,5.20
2016,09,30,03,00,5.20
2016,09,30,03,01,5.20
2016,09,30,03,02,5.20
2016,09,30,03,03,5.20
2016,09,30,03,04,5.20
2016,09,30,03,05,5.20
2016,09,30,03,06,5.20
2016,09,30,03,07,5.20
2016,09,30,03,08,5.20
2016,09,30,03,09,5.20
2016,09,30,03,10,5.20
2016,09,30,03,11,5.20
2016,09,30,03,12,5.20
2016,09,30,03,13,5.10
2016,09,30,03,14,5.10
2016,09,30,03,15,5.10
2016,09,30,03,16,5.10
2016,09,30,03,17,5.10
2016,09,30,03,18,5.10
2016,09,30,03,19,5.10
2016,09,30,03,20,5.10
2016,09,30,03,21,5.10
2016,09,30,03,22,5.10
2016,09,30,03,23,5.00
2016,09,30,03,24,5.00
2016,09,30,03,25,5.00
2016,09,30,03,26,5.00
2016,09,30,03,27,5.00
2016,09,30,03,28,5.00
2016,09,30,03,29,4.90
2016,09,30,03,30,4.90
2016,09,30,03,31,4.90
2016,09,30,03,32,4.90
2016,09,30,03,33,4.90
2016,09,30,03,34,4.90
2016,09,30,03,35,4.90
2016,09,30,03,36,4.90
2016,09,30,03,37,4.90
2016,09,30,03,38,4.90
2016,09,30,03,39,4.90
2016,09,30,03,40,4.80
2016,09,30,03,41,4.80
2016,09,30,03,42,4.80
2016,09,30,03,43,4.80
2016,09,30,03,44,4.80
2016,09,30,03,45,4.80
2016,09,30,03,46,4.80
2016,09,30,03,47,4.80
2016,09,30,03,48,4.80
2016,09,30,03,49,4.80
2016,09,30,03,50,4.80
2016,09,30,03,51,4.80
2016,09,30,03,52,4.80
2016,09,30,03,53,4.80
2016,09,30,03,54,4.80
2016,09,30,03,55,4.80
2016,09,30,03,56,4.80
2016,09,30,03,57,4.80
2016,09,30,03,58,4.70
2016,09,30,03,59,4.70
2016,09,30,04,00,4.70
2016,09,30,04,01,4.70
2016,09,30,04,02,4.70
2016,09,30,04,03,4.70
2016,09,30,04,04,4.70
2016,09,30,04,05,4.70
2016,09,30,04,06,4.60
2016,09,30,04,07,4.60
2016,09,30,04,08,4.60
2016,09,30,04,09,4.60
2016,09,30,04,10,4.60
2016,09,30,04,11,4.50
2016,09,30,04,12,4.50
2016,09,30,04,13,4.50
2016,09,30,04,14,4.50
2016,09,30,04,15,4.40
2016,09,30,04,16,4.40
2016,09,30,04,17,4.40
2016,09,30,04,18,4.40
2016,09,30,04,19,4.40
2016,09,30,04,20,4.40
2016,09,30,04,21,4.40
2016,09,30,04,22,4.30
2016,09,30,04,23,4.30
2016,09,30,04,24,4.30
2016,09,30,04,25,4.30
2016,09,30,04,26,4.30
2016,09,30,04,27,4.30
2016,09,30,04,28,4.30
2016,09,30,04,29,4.30
2016,09,30,04,30,4.30
2016,09,30,04,31,4.30
2016,09,30,04,32,4.30
2016,09,30,04,33,4.30
2016,09,30,04,34,4.30
2016,09,30,04,35,4.30
2016,09,30,04,36,4.30
2016,09,30,04,37,4.30
2016,09,30,04,38,4.20
2016,09,30,04,39,4.30
2016,09,30,04,40,4.30
2016,09,30,04,41,4.30
2016,09,30,04,42,4.30
2016,09,30,04,43,4.30
2016,09,30,04,44,4.30
2016,09,30,04,45,4.40
2016,09,30,04,46,4.40
2016,09,30,04,47,4.40
2016,09,30,04,48,4.40
2016,09,30,04,49,4.40
2016,09,30,04,50,4.40
2016,09,30,04,51,4.30
2016,09,30,04,52,4.30
2016,09,30,04,53,4.30
2016,09,30,04,54,4.30
2016,09,30,04,55,4.30
2016,09,30,04,56,4.30
2016,09,30,04,57,4.20
2016,09,30,04,58,4.20
2016,09,30,04,59,4.20
2016,09,30,05,00,4.20
2016,09,30,05,01,4.10
2016,09,30,05,02,4.10
2016,09,30,05,03,4.10
2016,09,30,05,04,4.00
2016,09,30,05,05,4.00
2016,09,30,05,06,4.00
2016,09,30,05,07,4.00
2016,09,30,05,08,3.90
2016,09,30,05,09,3.90
2016,09,30,05,10,3.90
2016,09,30,05,11,3.90
2016,09,30,05,12,3.90
2016,09,30,05,13,3.80
2016,09,30,05,14,3.80
2016,09,30,05,15,3.80
2016,09,30,05,16,3.80
2016,09,30,05,17,3.80
2016,09,30,05,18,3.80
2016,09,30,05,19,3.80
2016,09,30,05,20,3.80
2016,09,30,05,21,3.80
2016,09,30,05,22,3.80
2016,09,30,05,23,3.70
2016,09,30,05,24,3.70
2016,09,30,05,25,3.70
2016,09,30,05,26,3.70
2016,09,30,05,27,3.70
2016,09,30,05,28,3.70
2016,09,30,05,29,3.60
2016,09,30,05,30,3.60
2016,09,30,05,31,3.60
2016,09,30,05,32,3.60
2016,09,30,05,33,3.60
2016,09,30,05,34,3.60
2016,09,30,05,35,3.60
2016,09,30,05,36,3.60
2016,09,30,05,37,3.60
2016,09,30,05,38,3.60
2016,09,30,05,39,3.60
2016,09,30,05,40,3.60
2016,09,30,05,41,3.60
2016,09,30,05,42,3.50
2016,09,30,05,43,3.50
2016,09,30,05,44,3.50
2016,09,30,05,45,3.50
2016,09,30,05,46,3.50
2016,09,30,05,47,3.50
2016,09,30,05,48,3.50
2016,09,30,05,49,3.50
2016,09,30,05,50,3.50
2016,09,30,05,51,3.50
2016,09,30,05,52,3.50
2016,09,30,05,53,3.50
2016,09,30,05,54,3.40
2016,09,30,05,55,3.40
2016,09,30,05,56,3.50
2016,09,30,05,57,3.40
2016,09,30,05,58,3.40
2016,09,30,05,59,3.40
2016,09,30,06,00,3.40
2016,09,30,06,01,3.40
2016,09,30,06,02,3.40
2016,09,30,06,03,3.40
2016,09,30,06,04,3.40
2016,09,30,06,05,3.40
2016,09,30,06,06,3.40
2016,09,30,06,07,3.30
2016,09,30,06,08,3.30
2016,09,30,06,09,3.30
2016,09,30,06,10,3.30
2016,09,30,06,11,3.30
2016,09,30,06,12,3.30
2016,09,30,06,13,3.30
2016,09,30,06,14,3.30
2016,09,30,06,15,3.30
2016,09,30,06,16,3.30
2016,09,30,06,17,3.30
2016,09,30,06,18,3.30
2016,09,30,06,19,3.30
2016,09,30,06,20,3.30
2016,09,30,06,21,3.30
2016,09,30,06,22,3.30
2016,09,30,06,23,3.30
2016,09,30,06,24,3.30
2016,09,30,06,25,3.30
2016,09,30,06,26,3.30
2016,09,30,06,27,3.30
2016,09,30,06,28,3.20
2016,09,30,06,29,3.20
2016,09,30,06,30,3.20
2016,09,30,06,31,3.20
2016,09,30,06,32,3.20
2016,09,30,06,33,3.20
2016,09,30,06,34,3.20
2016,09,30,06,35,3.20
2016,09,30,06,36,3.20
2016,09,30,06,37,3.20
2016,09,30,06,38,3.20
2016,09,30,06,39,3.20
2016,09,30,06,40,3.20
2016,09,30,06,41,3.20
2016,09,30,06,42,3.20
2016,09,30,06,43,3.20
2016,09,30,06,44,3.20
2016,09,30,06,45,3.20
2016,09,30,06,46,3.20
2016,09,30,06,47,3.20
2016,09,30,06,48,3.20
2016,09,30,06,49,3.10
2016,09,30,06,50,3.10
2016,09,30,06,51,3.10
2016,09,30,06,52,3.10
2016,09,30,06,53,3.10
2016,09,30,06,54,3.10
2016,09,30,06,55,3.10
2016,09,30,06,56,3.10
2016,09,30,06,57,3.00
2016,09,30,06,58,3.00
2016,09,30,06,59,3.00
2016,09,30,07,00,3.00
2016,09,30,07,01,3.00
2016,09,30,07,02,3.00
2016,09,30,07,03,3.00
2016,09,30,07,04,3.00
2016,09,30,07,05,3.00
2016,09,30,07,06,3.00
2016,09,30,07,07,2.90
2016,09,30,07,08,2.90
2016,09,30,07,09,2.90
2016,09,30,07,10,2.90
2016,09,30,07,11,2.90
2016,09,30,07,12,2.90
2016,09,30,07,13,2.90
2016,09,30,07,14,2.90
2016,09,30,07,15,2.90
2016,09,30,07,16,2.80
2016,09,30,07,17,2.80
2016,09,30,07,18,2.80
2016,09,30,07,19,2.80
2016,09,30,07,20,2.80
2016,09,30,07,21,2.80
2016,09,30,07,22,2.80
2016,09,30,07,23,2.80
2016,09,30,07,24,2.80
2016,09,30,07,25,2.80
2016,09,30,07,26,2.80
2016,09,30,07,27,2.80
2016,09,30,07,28,2.80
2016,09,30,07,29,2.90
2016,09,30,07,30,2.90
2016,09,30,07,31,2.90
2016,09,30,07,32,2.90
2016,09,30,07,33,2.90
2016,09,30,07,34,2.90
2016,09,30,07,35,2.90
2016,09,30,07,36,2.90
2016,09,30,07,37,2.90
2016,09,30,07,38,2.90
2016,09,30,07,39,2.90
2016,09,30,07,40,2.90
2016,09,30,07,41,2.90
2016,09,30,07,42,2.90
2016,09,30,07,43,2.90
2016,09,30,07,44,2.90
2016,09,30,07,45,2.90
2016,09,30,07,46,3.00
2016,09,30,07,47,3.00
2016,09,30,07,48,3.00
2016,09,30,07,49,3.00
2016,09,30,07,50,3.00
2016,09,30,07,51,3.00
2016,09,30,07,52,3.00
2016,09,30,07,53,3.10
2016,09,30,07,54,3.10
2016,09,30,07,55,3.10
2016,09,30,07,56,3.10
2016,09,30,07,57,3.10
2016,09,30,07,58,3.10
2016,09,30,07,59,3.10
2016,09,30,08,00,3.10
2016,09,30,08,01,3.20
2016,09,30,08,02,3.20
2016,09,30,08,03,3.20
2016,09,30,08,04,3.20
2016,09,30,08,05,3.20
2016,09,30,08,06,3.20
2016,09,30,08,07,3.20
2016,09,30,08,08,3.20
2016,09,30,08,09,3.20
2016,09,30,08,10,3.20
2016,09,30,08,11,3.30
2016,09,30,08,12,3.30
2016,09,30,08,13,3.30
2016,09,30,08,14,3.30
2016,09,30,08,15,3.30
2016,09,30,08,16,3.40
2016,09,30,08,17,3.40
2016,09,30,08,18,3.40
2016,09,30,08,19,3.40
2016,09,30,08,20,3.40
2016,09,30,08,21,3.50
2016,09,30,08,22,3.50
2016,09,30,08,23,3.60
2016,09,30,08,24,3.60
2016,09,30,08,25,3.60
2016,09,30,08,26,3.70
2016,09,30,08,27,3.70
2016,09,30,08,28,3.70
2016,09,30,08,29,3.70
2016,09,30,08,30,3.80
2016,09,30,08,31,3.80
2016,09,30,08,32,3.80
2016,09,30,08,33,3.80
2016,09,30,08,34,3.90
2016,09,30,08,35,3.90
2016,09,30,08,36,3.90
2016,09,30,08,37,3.90
2016,09,30,08,38,4.00
2016,09,30,08,39,4.00
2016,09,30,08,40,4.00
2016,09,30,08,41,4.00
2016,09,30,08,42,4.00
2016,09,30,08,43,4.10
2016,09,30,08,44,4.10
2016,09,30,08,45,4.10
2016,09,30,08,46,4.10
2016,09,30,08,47,4.10
2016,09,30,08,48,4.10
2016,09,30,08,49,4.20
2016,09,30,08,50,4.20
2016,09,30,08,51,4.20
2016,09,30,08,52,4.20
2016,09,30,08,53,4.20
2016,09,30,08,54,4.20
2016,09,30,08,55,4.30
2016,09,30,08,56,4.30
2016,09,30,08,57,4.30
2016,09,30,08,58,4.30
2016,09,30,08,59,4.30
2016,09,30,09,00,4.40
2016,09,30,09,01,4.40
2016,09,30,09,02,4.40
2016,09,30,09,03,4.40
2016,09,30,09,04,4.40
2016,09,30,09,05,4.40
2016,09,30,09,06,4.40
2016,09,30,09,07,4.50
2016,09,30,09,08,4.50
2016,09,30,09,09,4.50
2016,09,30,09,10,4.50
2016,09,30,09,11,4.60
2016,09,30,09,12,4.60
2016,09,30,09,13,4.60
2016,09,30,09,14,4.60
2016,09,30,09,15,4.70
2016,09,30,09,16,4.70
2016,09,30,09,17,4.70
2016,09,30,09,18,4.80
2016,09,30,09,19,4.80
2016,09,30,09,20,4.90
2016,09,30,09,21,5.00
2016,09,30,09,22,5.10
2016,09,30,09,23,5.10
2016,09,30,09,24,5.20
2016,09,30,09,25,5.30
2016,09,30,09,26,5.40
2016,09,30,09,27,5.60
2016,09,30,09,28,5.70
2016,09,30,09,29,5.80
2016,09,30,09,30,5.90
2016,09,30,09,31,6.00
2016,09,30,09,32,6.10
2016,09,30,09,33,6.20
2016,09,30,09,34,6.30
2016,09,30,09,35,6.40
2016,09,30,09,36,6.50
2016,09,30,09,37,6.70
2016,09,30,09,38,6.80
2016,09,30,09,39,6.90
2016,09,30,09,40,7.00
2016,09,30,09,41,7.10
2016,09,30,09,42,7.20
2016,09,30,09,43,7.30
2016,09,30,09,44,7.40
2016,09,30,09,45,7.50
2016,09,30,09,46,7.60
2016,09,30,09,47,7.70
2016,09,30,09,48,7.80
2016,09,30,09,49,7.80
2016,09,30,09,50,7.90
2016,09,30,09,51,7.90
2016,09,30,09,52,7.90
2016,09,30,09,53,7.90
2016,09,30,09,54,7.90
2016,09,30,09,55,8.00
2016,09,30,09,56,8.00
2016,09,30,09,57,8.00
2016,09,30,09,58,8.10
2016,09,30,09,59,8.10
2016,09,30,10,00,8.10
2016,09,30,10,01,8.10
2016,09,30,10,02,8.20
2016,09,30,10,03,8.20
2016,09,30,10,04,8.20
2016,09,30,10,05,8.30
2016,09,30,10,06,8.30
2016,09,30,10,07,8.30
2016,09,30,10,08,8.40
2016,09,30,10,09,8.40
2016,09,30,10,10,8.50
2016,09,30,10,11,8.50
2016,09,30,10,12,8.60
2016,09,30,10,13,8.60
2016,09,30,10,14,8.70
2016,09,30,10,15,8.80
2016,09,30,10,16,8.90
2016,09,30,10,17,9.00
2016,09,30,10,18,9.10
2016,09,30,10,19,9.20
2016,09,30,10,20,9.30
2016,09,30,10,21,9.30
2016,09,30,10,22,9.30
2016,09,30,10,23,9.40
2016,09,30,10,24,9.40
2016,09,30,10,25,9.50
2016,09,30,10,26,9.60
2016,09,30,10,27,9.60
2016,09,30,10,28,9.70
2016,09,30,10,29,9.70
2016,09,30,10,30,9.80
2016,09,30,10,31,9.80
2016,09,30,10,32,9.80
2016,09,30,10,33,9.80
2016,09,30,10,34,9.90
2016,09,30,10,35,10.00
2016,09,30,10,36,10.00
2016,09,30,10,37,10.10
2016,09,30,10,38,10.20
2016,09,30,10,39,10.20
2016,09,30,10,40,10.30
2016,09,30,10,41,10.40
2016,09,30,10,42,10.50
2016,09,30,10,43,10.60
2016,09,30,10,44,10.60
2016,09,30,10,45,10.70
2016,09,30,10,46,10.80
2016,09,30,10,47,10.80
2016,09,30,10,48,10.80
2016,09,30,10,49,10.90
2016,09,30,10,50,10.90
2016,09,30,10,51,10.90
2016,09,30,10,52,10.90
2016,09,30,10,53,11.00
2016,09,30,10,54,11.00
2016,09,30,10,55,11.10
2016,09,30,10,56,11.20
2016,09,30,10,57,11.30
2016,09,30,10,58,11.30
2016,09,30,10,59,11.40
2016,09,30,11,00,11.40
2016,09,30,11,01,11.40
2016,09,30,11,02,11.40
2016,09,30,11,03,11.50
2016,09,30,11,04,11.60
2016,09,30,11,05,11.60
2016,09,30,11,06,11.70
2016,09,30,11,07,11.70
2016,09,30,11,08,11.80
2016,09,30,11,09,11.70
2016,09,30,11,10,11.80
2016,09,30,11,11,11.80
2016,09,30,11,12,11.90
2016,09,30,11,13,11.90
2016,09,30,11,14,12.00
2016,09,30,11,15,11.90
2016,09,30,11,16,11.90
2016,09,30,11,17,12.00
2016,09,30,11,18,12.00
2016,09,30,11,19,12.00
2016,09,30,11,20,12.00
2016,09,30,11,21,12.10
2016,09,30,11,22,12.10
2016,09,30,11,23,12.10
2016,09,30,11,24,12.10
2016,09,30,11,25,12.20
2016,09,30,11,26,12.20
2016,09,30,11,27,12.20
2016,09,30,11,28,12.30
2016,09,30,11,29,12.30
2016,09,30,11,30,12.30
2016,09,30,11,31,12.30
2016,09,30,11,32,12.30
2016,09,30,11,33,12.40
2016,09,30,11,34,12.30
2016,09,30,11,35,12.30
2016,09,30,11,36,12.30
2016,09,30,11,37,12.30
2016,09,30,11,38,12.20
2016,09,30,11,39,12.20
2016,09,30,11,40,12.20
2016,09,30,11,41,12.30
2016,09,30,11,42,12.30
2016,09,30,11,43,12.30
2016,09,30,11,44,12.20
2016,09,30,11,45,12.20
2016,09,30,11,46,12.10
2016,09,30,11,47,12.10
2016,09,30,11,48,12.00
2016,09,30,11,49,12.00
2016,09,30,11,50,12.00
2016,09,30,11,51,11.90
2016,09,30,11,52,11.90
2016,09,30,11,53,11.90
2016,09,30,11,54,11.90
2016,09,30,11,55,11.90
2016,09,30,11,56,11.90
2016,09,30,11,57,11.80
2016,09,30,11,58,11.80
2016,09,30,11,59,11.90
2016,09,30,12,00,12.00
2016,09,30,12,01,12.00
2016,09,30,12,02,12.00
2016,09,30,12,03,12.00
2016,09,30,12,04,12.00
2016,09,30,12,05,12.10
2016,09,30,12,06,12.10
2016,09,30,12,07,12.10
2016,09,30,12,08,12.00
2016,09,30,12,09,12.00
2016,09,30,12,10,12.00
2016,09,30,12,11,12.00
2016,09,30,12,12,12.10
2016,09,30,12,13,12.10
2016,09,30,12,14,12.20
2016,09,30,12,15,12.20
2016,09,30,12,16,12.30
2016,09,30,12,17,12.30
2016,09,30,12,18,12.30
2016,09,30,12,19,12.40
2016,09,30,12,20,12.30
2016,09,30,12,21,12.30
2016,09,30,12,22,12.30
2016,09,30,12,23,12.40
2016,09,30,12,24,12.40
2016,09,30,12,25,12.40
2016,09,30,12,26,12.40
2016,09,30,12,27,12.40
2016,09,30,12,28,12.40
2016,09,30,12,29,12.40
2016,09,30,12,30,12.50
2016,09,30,12,31,12.50
2016,09,30,12,32,12.50
2016,09,30,12,33,12.50
2016,09,30,12,34,12.60
2016,09,30,12,35,12.60
2016,09,30,12,36,12.60
2016,09,30,12,37,12.60
2016,09,30,12,38,12.60
2016,09,30,12,39,12.60
2016,09,30,12,40,12.60
2016,09,30,12,41,12.60
2016,09,30,12,42,12.50
2016,09,30,12,43,12.50
2016,09,30,12,44,12.40
2016,09,30,12,45,12.30
2016,09,30,12,46,12.30
2016,09,30,12,47,12.30
2016,09,30,12,48,12.20
2016,09,30,12,49,12.20
2016,09,30,12,50,12.20
2016,09,30,12,51,12.30
2016,09,30,12,52,12.30
2016,09,30,12,53,12.30
2016,09,30,12,54,12.30
2016,09,30,12,55,12.30
2016,09,30,12,56,12.20
2016,09,30,12,57,12.20
2016,09,30,12,58,12.10
2016,09,30,12,59,12.10
2016,09,30,13,00,12.00
2016,09,30,13,01,12.00
2016,09,30,13,02,12.00
2016,09,30,13,03,11.90
2016,09,30,13,04,12.00
2016,09,30,13,05,12.00
2016,09,30,13,06,12.10
2016,09,30,13,07,12.10
2016,09,30,13,08,12.10
2016,09,30,13,09,12.10
2016,09,30,13,10,12.10
2016,09,30,13,11,12.00
2016,09,30,13,12,12.00
2016,09,30,13,13,12.00
2016,09,30,13,14,12.00
2016,09,30,13,15,12.00
2016,09,30,13,16,12.00
2016,09,30,13,17,12.00
2016,09,30,13,18,12.00
2016,09,30,13,19,11.90
2016,09,30,13,20,11.90
2016,09,30,13,21,11.90
2016,09,30,13,22,11.90
2016,09,30,13,23,12.00
2016,09,30,13,24,12.00
2016,09,30,13,25,12.00
2016,09,30,13,26,11.90
2016,09,30,13,27,11.90
2016,09,30,13,28,12.00
2016,09,30,13,29,12.00
2016,09,30,13,30,12.10
2016,09,30,13,31,12.20
2016,09,30,13,32,12.20
2016,09,30,13,33,12.20
2016,09,30,13,34,12.10
2016,09,30,13,35,12.10
2016,09,30,13,36,12.10
2016,09,30,13,37,12.10
2016,09,30,13,38,12.10
2016,09,30,13,39,12.10
2016,09,30,13,40,12.10
2016,09,30,13,41,12.10
2016,09,30,13,42,12.10
2016,09,30,13,43,12.10
2016,09,30,13,44,12.10
2016,09,30,13,45,12.10
2016,09,30,13,46,12.20
2016,09,30,13,47,12.10
2016,09,30,13,48,12.10
2016,09,30,13,49,12.10
2016,09,30,13,50,12.00
2016,09,30,13,51,12.00
2016,09,30,13,52,12.00
2016,09,30,13,53,12.00
2016,09,30,13,54,12.10
2016,09,30,13,55,12.10
2016,09,30,13,56,12.20
2016,09,30,13,57,12.20
2016,09,30,13,58,12.20
2016,09,30,13,59,12.20
2016,09,30,14,00,12.20
2016,09,30,14,01,12.20
2016,09,30,14,02,12.10
2016,09,30,14,03,12.10
2016,09,30,14,04,12.10
2016,09,30,14,05,12.10
2016,09,30,14,06,12.20
2016,09,30,14,07,12.20
2016,09,30,14,08,12.20
2016,09,30,14,09,12.20
2016,09,30,14,10,12.20
2016,09,30,14,11,12.20
2016,09,30,14,12,12.20
2016,09,30,14,13,12.20
2016,09,30,14,14,12.20
2016,09,30,14,15,12.20
2016,09,30,14,16,12.20
2016,09,30,14,17,12.20
2016,09,30,14,18,12.20
2016,09,30,14,19,12.10
2016,09,30,14,20,12.10
2016,09,30,14,21,12.20
2016,09,30,14,22,12.20
2016,09,30,14,23,12.30
2016,09,30,14,24,12.30
2016,09,30,14,25,12.40
2016,09,30,14,26,12.50
2016,09,30,14,27,12.50
2016,09,30,14,28,12.60
2016,09,30,14,29,12.60
2016,09,30,14,30,12.60
2016,09,30,14,31,12.70
2016,09,30,14,32,12.70
2016,09,30,14,33,12.70
2016,09,30,14,34,12.70
2016,09,30,14,35,12.80
2016,09,30,14,36,12.80
2016,09,30,14,37,12.80
2016,09,30,14,38,12.80
2016,09,30,14,39,12.80
2016,09,30,14,40,12.90
2016,09,30,14,41,12.90
2016,09,30,14,42,12.90
2016,09,30,14,43,12.90
2016,09,30,14,44,12.90
2016,09,30,14,45,12.90
2016,09,30,14,46,12.90
2016,09,30,14,47,12.90
2016,09,30,14,48,12.80
2016,09,30,14,49,12.80
2016,09,30,14,50,12.70
2016,09,30,14,51,12.60
2016,09,30,14,52,12.60
2016,09,30,14,53,12.60
2016,09,30,14,54,12.50
2016,09,30,14,55,12.50
2016,09,30,14,56,12.50
2016,09,30,14,57,12.50
2016,09,30,14,58,12.50
2016,09,30,14,59,12.50
2016,09,30,15,00,12.50
2016,09,30,15,01,12.40
2016,09,30,15,02,12.40
2016,09,30,15,03,12.40
2016,09,30,15,04,12.40
2016,09,30,15,05,12.50
2016,09,30,15,06,12.40
2016,09,30,15,07,12.40
2016,09,30,15,08,12.40
2016,09,30,15,09,12.40
2016,09,30,15,10,12.40
2016,09,30,15,11,12.50
2016,09,30,15,12,12.60
2016,09,30,15,13,12.60
2016,09,30,15,14,12.60
2016,09,30,15,15,12.60
2016,09,30,15,16,12.60
2016,09,30,15,17,12.60
2016,09,30,15,18,12.60
2016,09,30,15,19,12.60
2016,09,30,15,20,12.50
2016,09,30,15,21,12.60
2016,09,30,15,22,12.50
2016,09,30,15,23,12.60
2016,09,30,15,24,12.60
2016,09,30,15,25,12.60
2016,09,30,15,26,12.60
2016,09,30,15,27,12.70
2016,09,30,15,28,12.70
2016,09,30,15,29,12.70
2016,09,30,15,30,12.80
2016,09,30,15,31,12.70
2016,09,30,15,32,12.70
2016,09,30,15,33,12.60
2016,09,30,15,34,12.60
2016,09,30,15,35,12.50
2016,09,30,15,36,12.50
2016,09,30,15,37,12.50
2016,09,30,15,38,12.50
2016,09,30,15,39,12.50
2016,09,30,15,40,12.60
2016,09,30,15,41,12.60
2016,09,30,15,42,12.60
2016,09,30,15,43,12.60
2016,09,30,15,44,12.60
2016,09,30,15,45,12.60
2016,09,30,15,46,12.60
2016,09,30,15,47,12.60
2016,09,30,15,48,12.60
2016,09,30,15,49,12.60
2016,09,30,15,50,12.60
2016,09,30,15,51,12.60
2016,09,30,15,52,12.60
2016,09,30,15,53,12.70
2016,09,30,15,54,12.70
2016,09,30,15,55,12.70
2016,09,30,15,56,12.70
2016,09,30,15,57,12.70
2016,09,30,15,58,12.70
2016,09,30,15,59,12.70
2016,09,30,16,00,12.70
2016,09,30,16,01,12.60
2016,09,30,16,02,12.60
2016,09,30,16,03,12.60
2016,09,30,16,04,12.60
2016,09,30,16,05,12.60
2016,09,30,16,06,12.60
2016,09,30,16,07,12.70
2016,09,30,16,08,12.70
2016,09,30,16,09,12.70
2016,09,30,16,10,12.70
2016,09,30,16,11,12.70
2016,09,30,16,12,12.80
2016,09,30,16,13,12.80
2016,09,30,16,14,12.80
2016,09,30,16,15,12.80
2016,09,30,16,16,12.80
2016,09,30,16,17,12.90
2016,09,30,16,18,12.90
2016,09,30,16,19,12.90
2016,09,30,16,20,12.90
2016,09,30,16,21,12.90
2016,09,30,16,22,12.90
2016,09,30,16,23,12.90
2016,09,30,16,24,13.00
2016,09,30,16,25,13.00
2016,09,30,16,26,13.10
2016,09,30,16,27,13.10
2016,09,30,16,28,13.10
2016,09,30,16,29,13.10
2016,09,30,16,30,13.10
2016,09,30,16,31,13.10
2016,09,30,16,32,13.10
2016,09,30,16,33,13.10
2016,09,30,16,34,13.10
2016,09,30,16,35,13.10
2016,09,30,16,36,13.10
2016,09,30,16,37,13.10
2016,09,30,16,38,13.10
2016,09,30,16,39,13.10
2016,09,30,16,40,13.10
2016,09,30,16,41,13.10
2016,09,30,16,42,13.10
2016,09,30,16,43,13.10
2016,09,30,16,44,13.10
2016,09,30,16,45,13.10
2016,09,30,16,46,13.20
2016,09,30,16,47,13.10
2016,09,30,16,48,13.10
2016,09,30,16,49,13.10
2016,09,30,16,50,13.10
2016,09,30,16,51,13.10
2016,09,30,16,52,13.10
2016,09,30,16,53,13.10
2016,09,30,16,54,13.20
2016,09,30,16,55,13.20
2016,09,30,16,56,13.20
2016,09,30,16,57,13.20
2016,09,30,16,58,13.20
2016,09,30,16,59,13.20
2016,09,30,17,00,13.20
2016,09,30,17,01,13.10
2016,09,30,17,02,13.10
2016,09,30,17,03,13.10
2016,09,30,17,04,13.10
2016,09,30,17,05,13.10
2016,09,30,17,06,13.10
2016,09,30,17,07,13.10
2016,09,30,17,08,13.00
2016,09,30,17,09,13.00
2016,09,30,17,10,13.00
2016,09,30,17,11,13.00
2016,09,30,17,12,12.90
2016,09,30,17,13,12.90
2016,09,30,17,14,12.90
2016,09,30,17,15,12.90
2016,09,30,17,16,12.90
2016,09,30,17,17,12.90
2016,09,30,17,18,12.90
2016,09,30,17,19,12.90
2016,09,30,17,20,12.90
2016,09,30,17,21,12.90
2016,09,30,17,22,12.90
2016,09,30,17,23,12.90
2016,09,30,17,24,12.90
2016,09,30,17,25,12.90
2016,09,30,17,26,12.90
2016,09,30,17,27,12.90
2016,09,30,17,28,12.90
2016,09,30,17,29,12.90
2016,09,30,17,30,12.90
2016,09,30,17,31,12.90
2016,09,30,17,32,12.90
2016,09,30,17,33,12.90
2016,09,30,17,34,12.90
2016,09,30,17,35,12.80
2016,09,30,17,36,12.80
2016,09,30,17,37,12.80
2016,09,30,17,38,12.80
2016,09,30,17,39,12.80
2016,09,30,17,40,12.80
2016,09,30,17,41,12.80
2016,09,30,17,42,12.80
2016,09,30,17,43,12.80
2016,09,30,17,44,12.80
2016,09,30,17,45,12.80
2016,09,30,17,46,12.80
2016,09,30,17,47,12.80